[[{"header":{"parameterUnit":"m.s-1","parameterCategory":1,"la1":30.2991,"la2":30.254,"lo1":-89.0895,"lo2":-89.0444,"dy":0.0017,"dx":0.0017,"nx":28,"ny":28,"refTime":"2024-06-13T21:00:00:Z","depth":0,"parameterNumber":2,"parameterNumberName":"U-component_of_WINDS"},"data":[0,0,0,0,0,0,0,0,0,0,0,0,0,0,0,0,0,0,0,0,0,0,0,0,0,0,0,0,0,0,0,0,0,0,0,0,0,0,0,0,0,0,0,0,0,0,0,0,0,0,0,0,0,0,0,0,0,0,-0.4845,-0.4845,0,-0.4796,-0.4796,-0.4795,-0.4757,-0.4757,-0.4756,-0.4756,-0.4704,-0.4703,-0.4702,0,0,0,0,0,0,0,0,0,0,0,0,0,-0.4905,-0.4904,-0.4845,-0.4845,-0.4844,-0.4796,-0.4796,-0.4795,-0.4757,-0.4757,-0.4756,-0.4756,-0.4704,-0.4703,-0.4702,0,0,0,0,0,0,0,0,0,0,0,0,0,-0.487,-0.4904,-0.4846,-0.482,-0.4817,-0.4796,-0.4796,-0.4795,-0.4757,-0.4757,-0.4756,-0.4756,-0.4705,-0.4703,-0.4701,-0.4702,0,0,-0.4697,-0.4696,0,0,0,0,0,0,0,0,-0.4872,-0.4868,-0.4824,-0.4821,-0.4818,-0.4782,-0.4797,-0.4764,-0.4757,-0.478,-0.4756,-0.4755,-0.473,-0.4727,-0.4718,-0.47,-0.4698,-0.4696,-0.4695,-0.4695,-0.4694,0,0,0,0,0,0,0,-0.4875,-0.487,-0.4826,-0.4823,-0.482,-0.481,-0.4804,-0.4791,-0.4759,-0.4778,-0.4775,-0.477,-0.4729,-0.472,-0.4717,-0.4697,-0.4697,-0.4695,-0.4694,-0.4693,-0.4677,-0.4677,0,0,0,0,0,0,-0.4881,-0.4872,-0.4827,-0.4824,-0.4844,-0.4809,-0.4803,-0.4794,-0.4759,-0.4753,-0.477,-0.4768,-0.4723,-0.4719,-0.4715,-0.4714,-0.4695,-0.4693,-0.4692,-0.4676,-0.4677,-0.4677,0,0,0,0,0,0,-0.4883,-0.4878,-0.4829,-0.4847,-0.4841,-0.4809,-0.4799,-0.4794,-0.4785,-0.4753,-0.4747,-0.4768,-0.4722,-0.4717,-0.4706,-0.4711,-0.4693,-0.4691,-0.4676,-0.4676,-0.4677,-0.4712,0,0,0,0,0,0,-0.4885,-0.4878,-0.4879,-0.4848,-0.484,-0.4822,-0.48,-0.4793,-0.4783,-0.4779,-0.4749,-0.4743,-0.4722,-0.4708,-0.4704,-0.4709,-0.469,-0.4675,-0.4676,-0.4677,-0.471,-0.4714,-0.4717,0,0,0,0,0,-0.4887,-0.489,-0.4879,-0.4874,-0.484,-0.4822,-0.4818,-0.4793,-0.4783,-0.4783,-0.4763,-0.4744,-0.4712,-0.4708,-0.4703,-0.4707,-0.4674,-0.4676,-0.4677,-0.4708,-0.4713,-0.4717,0,0,0,0,0,0,-0.4921,-0.4885,-0.4873,-0.4866,-0.4848,-0.4816,-0.4815,-0.4799,-0.4782,-0.478,-0.475,-0.4743,-0.4735,-0.472,-0.4716,-0.4706,-0.4691,-0.4691,-0.4716,-0.472,-0.4724,-0.4728,-0.4689,0,0,0,0,0,-0.4929,-0.4918,-0.4887,-0.4884,-0.4875,-0.4847,-0.4838,-0.4821,-0.4801,-0.4792,-0.4771,-0.4751,-0.4737,-0.4727,-0.4712,-0.4707,-0.47,-0.4708,-0.4711,-0.4714,-0.4715,-0.4712,-0.4715,-0.4681,-0.4681,-0.4681,0,0,-0.4943,-0.4921,-0.4916,-0.489,-0.4874,-0.4863,-0.484,-0.483,-0.4822,-0.4791,-0.4779,-0.4763,-0.4739,-0.4731,-0.4726,-0.4718,-0.4722,-0.4716,-0.4718,-0.4717,-0.4713,-0.4716,-0.4719,-0.4682,-0.4682,-0.4682,0,0,-0.4963,-0.4946,-0.4942,-0.4926,-0.4902,-0.4883,-0.4882,-0.4853,-0.4842,-0.483,-0.4806,-0.4796,-0.4771,-0.4755,-0.4744,-0.4759,-0.4741,-0.4754,-0.4772,-0.4769,-0.4772,-0.4774,-0.478,-0.4782,-0.4755,-0.4755,-0.4755,0,-0.4983,-0.4967,-0.4942,-0.4933,-0.4922,-0.4894,-0.489,-0.4875,-0.4847,-0.484,-0.4831,-0.48,-0.4782,-0.477,-0.4774,-0.4766,-0.4764,-0.4758,-0.4774,-0.4776,-0.4777,-0.4783,-0.4785,-0.4757,-0.4757,-0.4756,-0.4756,0,-0.4993,-0.4983,-0.4982,-0.4957,-0.4946,-0.4939,-0.4912,-0.4904,-0.4888,-0.487,-0.4859,-0.4836,-0.4816,-0.4812,-0.4795,-0.4798,-0.4793,-0.478,-0.4764,-0.4783,-0.4787,-0.4789,-0.4759,-0.4759,-0.4758,-0.4758,0,0,-0.5034,-0.4995,-0.4996,-0.4984,-0.4956,-0.4946,-0.4939,-0.492,-0.4914,-0.4895,-0.4888,-0.4868,-0.4855,-0.4842,-0.4824,-0.4822,-0.4836,-0.4808,-0.4807,-0.4814,-0.4837,-0.4849,-0.4851,-0.4824,-0.4824,-0.4824,-0.484,0,-0.505,-0.5036,-0.5013,-0.5005,-0.4995,-0.4968,-0.4962,-0.4943,-0.4927,-0.4915,-0.4896,-0.4883,-0.4866,-0.4859,-0.4855,-0.4835,-0.484,-0.4833,-0.4817,-0.4817,-0.4824,-0.4853,-0.4865,-0.488,-0.4841,-0.4841,-0.4842,0,-0.5067,-0.5052,-0.5043,-0.5016,-0.5011,-0.5006,-0.4987,-0.4976,-0.4955,-0.4943,-0.4929,-0.4909,-0.49,-0.4885,-0.4871,-0.4867,-0.4859,-0.4848,-0.4848,-0.4846,-0.4831,-0.4852,-0.4885,-0.4887,-0.4844,-0.4844,-0.4844,0,-0.5099,-0.5075,-0.5067,-0.5058,-0.5026,-0.5023,-0.5009,-0.4988,-0.4978,-0.4961,-0.4955,-0.4937,-0.4927,-0.4913,-0.489,-0.4881,-0.4878,-0.4862,-0.4868,-0.4869,-0.4869,-0.4869,-0.4901,-0.4863,-0.4863,-0.4863,-0.4863,0,-0.5119,-0.5115,-0.5081,-0.5076,-0.5071,-0.5045,-0.504,-0.5024,-0.5005,-0.4997,-0.4972,-0.4965,-0.4933,-0.4922,-0.4903,-0.4895,-0.489,-0.488,-0.4875,-0.4883,-0.4884,-0.4877,-0.4876,-0.4864,-0.4864,-0.4863,-0.4863,0,-0.5153,-0.513,-0.512,-0.5091,-0.5084,-0.5081,-0.5056,-0.505,-0.5032,-0.5022,-0.5018,-0.4989,-0.4975,-0.495,-0.4928,-0.4915,-0.4911,-0.4902,-0.4918,-0.4915,-0.4923,-0.4923,-0.4952,-0.4954,-0.4915,-0.4915,-0.4916,0,-0.5168,-0.5165,-0.5136,-0.5129,-0.5117,-0.5105,-0.5095,-0.5069,-0.506,-0.5036,-0.5033,-0.5017,-0.5003,-0.4981,-0.4958,-0.4941,-0.4932,-0.4943,-0.4929,-0.4937,-0.4933,-0.4933,-0.4933,-0.4946,-0.4947,-0.4947,-0.4948,0,-0.5198,-0.5186,-0.5174,-0.5157,-0.5146,-0.5132,-0.5116,-0.5111,-0.5081,-0.5072,-0.5057,-0.5046,-0.5025,-0.5009,-0.4989,-0.4974,-0.4956,-0.4952,-0.4953,-0.4961,-0.4971,-0.4966,-0.4927,-0.4952,-0.4951,-0.4951,-0.4951,-0.4951,-0.5223,-0.5219,-0.5198,-0.5185,-0.517,-0.5156,-0.515,-0.5131,-0.5119,-0.5099,-0.5084,-0.5071,-0.505,-0.5021,-0.5008,-0.4997,-0.4989,-0.4989,-0.499,-0.499,-0.4994,-0.4972,-0.4993,-0.4993,-0.4993,-0.4993,-0.4993,0,-0.5251,-0.5237,-0.5225,-0.5204,-0.5193,-0.5178,-0.5159,-0.5152,-0.514,-0.5123,-0.5109,-0.5093,-0.5078,-0.5054,-0.5037,-0.5032,-0.5024,-0.5029,-0.5029,-0.5026,-0.5002,-0.5003,-0.5036,-0.5036,-0.5036,-0.5036,-0.5036,-0.5036,-0.5265,-0.5257,-0.5244,-0.5229,-0.5214,-0.5202,-0.5193,-0.5179,-0.5165,-0.5148,-0.5136,-0.5121,-0.51,-0.5082,-0.5067,-0.506,-0.5055,-0.5063,-0.5054,-0.5032,-0.5028,-0.5024,-0.5025,-0.5062,-0.5062,-0.5079,-0.508,-0.508]},{"header":{"parameterUnit":"m.s-1","parameterCategory":1,"la1":30.2991,"la2":30.254,"lo1":-89.0895,"lo2":-89.0444,"dy":0.0017,"dx":0.0017,"nx":28,"ny":28,"refTime":"2024-06-13T21:00:00:Z","depth":0,"parameterNumber":3,"parameterNumberName":"V-component_of_WINDS"},"data":[0,0,0,0,0,0,0,0,0,0,0,0,0,0,0,0,0,0,0,0,0,0,0,0,0,0,0,0,0,0,0,0,0,0,0,0,0,0,0,0,0,0,0,0,0,0,0,0,0,0,0,0,0,0,0,0,0,0,-0.4207,-0.4207,0,-0.4204,-0.4204,-0.4204,-0.4186,-0.4185,-0.4185,-0.4184,-0.4182,-0.4183,-0.4183,0,0,0,0,0,0,0,0,0,0,0,0,0,-0.4199,-0.4199,-0.4207,-0.4207,-0.4207,-0.4204,-0.4204,-0.4204,-0.4186,-0.4185,-0.4185,-0.4184,-0.4182,-0.4183,-0.4183,0,0,0,0,0,0,0,0,0,0,0,0,0,-0.42,-0.4199,-0.4207,-0.4197,-0.4197,-0.4204,-0.4204,-0.4204,-0.4186,-0.4185,-0.4185,-0.4184,-0.4182,-0.4183,-0.4183,-0.42,0,0,-0.4185,-0.4185,0,0,0,0,0,0,0,0,-0.42,-0.42,-0.4199,-0.4198,-0.4197,-0.4195,-0.42,-0.4203,-0.4186,-0.419,-0.4184,-0.4184,-0.4187,-0.4187,-0.4188,-0.42,-0.42,-0.4185,-0.4185,-0.4185,-0.4186,0,0,0,0,0,0,0,-0.42,-0.42,-0.4206,-0.4199,-0.4198,-0.4194,-0.4193,-0.4201,-0.4192,-0.419,-0.4188,-0.4188,-0.4186,-0.4188,-0.4188,-0.42,-0.4185,-0.4185,-0.4186,-0.4186,-0.4227,-0.4228,0,0,0,0,0,0,-0.4201,-0.42,-0.4206,-0.4206,-0.4197,-0.4195,-0.4194,-0.4196,-0.4192,-0.4191,-0.4189,-0.4187,-0.4187,-0.4187,-0.4188,-0.4209,-0.4185,-0.4186,-0.4186,-0.4226,-0.4227,-0.4228,0,0,0,0,0,0,-0.4201,-0.4201,-0.4206,-0.4203,-0.4203,-0.4195,-0.4198,-0.4196,-0.4198,-0.4191,-0.419,-0.4191,-0.4186,-0.4187,-0.4197,-0.4208,-0.4186,-0.4187,-0.4225,-0.4227,-0.4228,-0.425,0,0,0,0,0,0,-0.42,-0.4201,-0.4207,-0.4203,-0.4203,-0.4215,-0.4199,-0.4197,-0.4198,-0.4197,-0.4194,-0.4192,-0.4186,-0.4197,-0.4198,-0.4209,-0.4187,-0.4224,-0.4226,-0.4227,-0.4248,-0.4251,-0.4254,0,0,0,0,0,-0.42,-0.4213,-0.4208,-0.4208,-0.421,-0.4216,-0.4216,-0.4208,-0.4199,-0.4206,-0.4202,-0.4193,-0.4207,-0.4198,-0.4199,-0.421,-0.4224,-0.4225,-0.4227,-0.4246,-0.4251,-0.4254,0,0,0,0,0,0,-0.4219,-0.4212,-0.4206,-0.4218,-0.4218,-0.4213,-0.422,-0.4213,-0.4215,-0.4213,-0.4203,-0.4203,-0.4215,-0.4213,-0.4204,-0.4227,-0.4214,-0.4216,-0.4228,-0.4232,-0.4235,-0.4236,-0.4187,0,0,0,0,0,-0.4225,-0.4229,-0.4223,-0.4235,-0.4235,-0.4228,-0.423,-0.4224,-0.4223,-0.4223,-0.422,-0.422,-0.4225,-0.4228,-0.4232,-0.4247,-0.4247,-0.4256,-0.4259,-0.4261,-0.4264,-0.4274,-0.4278,-0.4234,-0.4234,-0.4234,0,0,-0.4236,-0.4233,-0.4237,-0.4238,-0.4237,-0.4244,-0.4228,-0.4234,-0.4239,-0.4224,-0.4234,-0.4232,-0.4232,-0.4245,-0.4251,-0.4244,-0.4276,-0.4264,-0.4266,-0.4267,-0.4276,-0.428,-0.4284,-0.4235,-0.4235,-0.4235,0,0,-0.4261,-0.4258,-0.4268,-0.4268,-0.4266,-0.4262,-0.4264,-0.4261,-0.4259,-0.4269,-0.4258,-0.4264,-0.4271,-0.4272,-0.4273,-0.43,-0.4292,-0.4301,-0.4318,-0.4328,-0.4332,-0.4335,-0.4346,-0.4349,-0.4303,-0.4303,-0.4303,0,-0.4275,-0.4283,-0.4274,-0.4282,-0.4284,-0.4271,-0.4281,-0.4281,-0.4282,-0.4283,-0.4276,-0.4286,-0.4285,-0.4299,-0.4306,-0.4307,-0.431,-0.4302,-0.4332,-0.4335,-0.4337,-0.4348,-0.4352,-0.4304,-0.4304,-0.4304,-0.4304,0,-0.4302,-0.4308,-0.4317,-0.4318,-0.432,-0.4329,-0.4322,-0.4326,-0.432,-0.4317,-0.4328,-0.4326,-0.433,-0.4332,-0.4326,-0.4346,-0.4342,-0.4333,-0.432,-0.4343,-0.4353,-0.4356,-0.4306,-0.4306,-0.4305,-0.4305,0,0,-0.4338,-0.4335,-0.4338,-0.4339,-0.4338,-0.4342,-0.4352,-0.4355,-0.436,-0.436,-0.4369,-0.4376,-0.4368,-0.437,-0.4364,-0.4372,-0.4395,-0.4362,-0.4362,-0.437,-0.4419,-0.4427,-0.4432,-0.4389,-0.439,-0.4391,-0.442,0,-0.4363,-0.4378,-0.4371,-0.4388,-0.4394,-0.4382,-0.439,-0.4391,-0.4388,-0.4393,-0.439,-0.4396,-0.4384,-0.4386,-0.4393,-0.4391,-0.4405,-0.4388,-0.4398,-0.4399,-0.44,-0.4436,-0.4445,-0.4472,-0.4423,-0.4424,-0.4424,0,-0.4394,-0.4397,-0.4414,-0.4413,-0.4415,-0.4422,-0.4426,-0.4431,-0.4432,-0.4429,-0.4432,-0.4424,-0.4434,-0.442,-0.4435,-0.4424,-0.4427,-0.4427,-0.4428,-0.4429,-0.4414,-0.4441,-0.448,-0.4485,-0.443,-0.4429,-0.4429,0,-0.4421,-0.4428,-0.444,-0.4441,-0.4439,-0.4445,-0.4445,-0.4445,-0.4448,-0.4452,-0.4454,-0.4458,-0.4461,-0.4465,-0.446,-0.445,-0.4476,-0.4461,-0.4475,-0.4475,-0.4482,-0.4482,-0.4524,-0.4482,-0.4482,-0.4482,-0.4482,0,-0.445,-0.4461,-0.4453,-0.446,-0.4473,-0.4464,-0.4478,-0.4476,-0.4476,-0.4484,-0.4474,-0.4481,-0.4473,-0.448,-0.4475,-0.4489,-0.449,-0.4489,-0.4488,-0.4491,-0.4491,-0.4494,-0.4492,-0.4483,-0.4483,-0.4482,-0.4482,0,-0.4482,-0.4476,-0.4489,-0.4486,-0.4486,-0.4496,-0.4494,-0.4502,-0.4498,-0.4508,-0.451,-0.4505,-0.4513,-0.4508,-0.4515,-0.4512,-0.4531,-0.4526,-0.4531,-0.453,-0.4545,-0.4545,-0.4592,-0.4599,-0.4551,-0.4551,-0.4552,0,-0.4502,-0.451,-0.4509,-0.4514,-0.4514,-0.4521,-0.4524,-0.4517,-0.4521,-0.4523,-0.4531,-0.4538,-0.4543,-0.4556,-0.4554,-0.456,-0.4557,-0.4573,-0.4558,-0.4561,-0.4559,-0.4559,-0.4561,-0.4576,-0.4577,-0.4577,-0.4578,0,-0.4537,-0.4535,-0.454,-0.4545,-0.455,-0.4553,-0.4556,-0.456,-0.4553,-0.4558,-0.4566,-0.457,-0.4579,-0.4586,-0.4592,-0.4592,-0.4585,-0.4583,-0.4587,-0.459,-0.4593,-0.4593,-0.4541,-0.4582,-0.4581,-0.4581,-0.4581,-0.4581,-0.4565,-0.4573,-0.4574,-0.4581,-0.4582,-0.4585,-0.4592,-0.459,-0.4597,-0.4603,-0.4598,-0.4608,-0.461,-0.4617,-0.4618,-0.4626,-0.462,-0.4625,-0.4627,-0.4629,-0.4632,-0.4591,-0.4627,-0.4627,-0.4627,-0.4627,-0.4627,0,-0.4602,-0.4602,-0.4608,-0.4613,-0.4619,-0.461,-0.4613,-0.4619,-0.4628,-0.463,-0.4636,-0.4646,-0.4654,-0.4652,-0.4659,-0.4666,-0.4663,-0.4669,-0.4669,-0.4669,-0.4636,-0.4633,-0.4671,-0.4671,-0.4671,-0.4671,-0.4671,-0.4671,-0.4622,-0.4635,-0.4633,-0.4647,-0.4647,-0.4657,-0.466,-0.4663,-0.4665,-0.4677,-0.4683,-0.4682,-0.4683,-0.4691,-0.4698,-0.4697,-0.4701,-0.4708,-0.4707,-0.4676,-0.4671,-0.4667,-0.4664,-0.4709,-0.4709,-0.4739,-0.474,-0.474]}]]